Voltar ao catálogo

COSMOS 2128

AtivoNavegaçãoLEO
NORAD 21103·PAYLOAD·🇷🇺 Russia

Lançado Feb 12, 1991 de Plesetsk Cosmodrome

Loading…

Próximas Passagens (próximas 24 horas)

TLE

AtualizadoSource: Space-Track

Época: Sep 14, 2026, 09:23 UTC

1 21103U 91009D   26257.39157507  .00000006  00000-0  14359-3 0  9996
2 21103  74.0299 139.0539 0015290 301.4244  58.5312 12.51926704626404

Acompanhe COSMOS 2128 em tempo real com AllMySat

Download on the App Store